#timestamp,LO_Frequency,Hit,StdDev 
1507860015.0,286047002.0,P
1507860015.9,286047002.0,N
1507860035.8,286047001.4,N
1507860055.6,286047002.2,N
1507860075.5,286047002.2,N
1507860095.3,286047002.5,N
1507860115.1,286047000.2,N
1507860135.9,286047000.5,N
1507860155.7,286047001.7,N
1507860175.5,286047000.2,N
1507860195.4,286046999.7,N
1507860215.2,286047002.2,N
1507860235.0,286047001.0,N
1507860236.0,286047001.0,N
1507860255.8,286047002.2,N
1507860275.6,286047000.0,N
1507860295.5,286047000.5,N
1507860315.3,286047000.3,N
1507860335.1,286046999.9,N
1507860355.9,286047000.9,N
1507860375.7,286047000.7,N
1507860395.6,286047000.9,N
1507860415.4,286047000.5,N
1507860435.2,286047002.5,N
1507860455.1,286047002.6,N
1507860456.0,286047002.6,N
1507860475.8,286047000.8,N
1507860495.6,286047000.4,N
1507860515.5,286047002.5,N
1507860535.3,286046999.8,N
1507860555.2,286046999.9,N
1507860575.9,286047000.1,N
1507860595.7,286047000.3,N
1507860615.6,286047000.1,N
1507860635.4,286046999.7,N
1507860655.2,286047000.1,N
1507860675.1,286047000.9,N
1507860676.0,286047000.9,N
1507860695.8,286047000.5,N
1507860715.7,286047001.1,N
1507860735.5,286046998.1,N
1507860755.3,286046998.3,N
1507860775.2,286046999.0,N
1507860795.0,286047000.8,N
1507860795.9,286047000.8,N
1507860815.8,286046998.5,N
1507860835.6,286046998.5,N
1507860855.4,286046999.3,N
1507860905.3,286046997.0,E
1507860915.2,286046998.3,N
1507860935.1,286047002.4,P
1507860936.0,286047002.4,N
1507860955.8,286047001.9,N
1507860975.7,286047002.0,N
1507860995.5,286047004.1,N
1507861015.3,286047001.7,N
1507861035.2,286047004.3,N
1507861055.9,286047004.4,N
1507861075.7,286047005.3,N
1507861095.6,286047003.1,N
1507861115.4,286047004.2,N
1507861135.3,286047001.3,N
1507861155.1,286047003.6,N
1507861156.0,286047003.6,N
1507861175.8,286047003.5,N
1507861195.7,286047003.6,N
1507861215.5,286047003.0,N
1507861235.4,286047003.0,N
1507861255.2,286047003.5,N
1507861275.0,286047004.0,N
1507861275.9,286047004.0,N
1507861295.8,286047003.2,N
1507861315.6,286047004.1,N
1507861335.5,286047005.4,Y
1507861355.3,286047002.7,P
1507861375.1,286047000.1,N
1507861395.9,286047000.1,N
1507861415.7,286047002.8,N
1507861435.5,286047001.4,N
1507861455.4,286047001.9,N
1507861475.2,286047002.4,N
1507861495.1,286047004.4,Y
1507861496.0,286047004.4,P
1507861515.8,286046999.9,N
1507861535.6,286047000.8,N
1507861555.5,286047000.1,N
1507861575.3,286047000.1,N
1507861595.2,286047000.0,N
1507861615.9,286047000.9,N
1507861635.7,286046999.7,N
1507861655.6,286047000.3,N
1507861675.4,286047000.2,N
1507861695.2,286047000.1,N
1507861715.1,286047001.8,N
1507861716.0,286047001.8,N
1507861735.8,286047002.1,N
1507861755.7,286047001.4,N
1507861775.5,286047001.8,N
1507861795.3,286047001.3,N
1507861815.2,286047001.6,N
1507861835.0,286047001.7,N
1507861835.9,286047001.7,N
1507861855.7,286047001.5,N
1507861875.6,286047002.2,N
1507861895.4,286047001.5,N
1507861915.3,286047002.5,N
1507861935.1,286047002.0,N
1507861936.0,286047002.0,N
1507861955.8,286047002.6,N
1507861975.7,286047001.4,N
1507861995.5,286047001.5,N
1507862015.4,286047004.2,Y
1507862035.2,286047002.2,P
1507862055.0,286047000.0,N
1507862055.9,286047000.0,N
1507862075.8,286047000.1,N
1507862095.6,286047002.1,N
1507862115.4,286047000.0,N
1507862135.3,286047002.8,N
1507862155.1,286047000.4,N
1507862175.9,286046999.8,N
1507862195.7,286047002.8,N
1507862215.5,286047002.3,N
1507862235.4,286047001.9,N
1507862255.2,286047002.0,N
1507862275.0,286047002.0,N
1507862275.9,286047002.0,N
1507862295.8,286047002.5,N
1507862315.6,286047000.4,N
1507862335.5,286046999.8,N
1507862355.3,286047000.9,N
1507862375.1,286047000.6,N
1507862395.9,286047000.2,N
1507862415.7,286047000.1,N
1507862435.5,286047002.7,N
1507862455.4,286047002.0,N
1507862475.2,286047002.0,N
1507862495.1,286047002.6,N
1507862496.0,286047002.6,N
1507862515.8,286046999.8,N
1507862535.6,286047002.0,N
1507862555.5,286047002.7,N
1507862575.3,286047002.3,N
1507862595.1,286047000.6,N
1507862615.9,286046999.8,N
1507862635.7,286047002.4,N
1507862655.6,286047000.9,N
1507862675.4,286047000.9,N
1507862695.2,286047000.5,N
1507862715.1,286047000.2,N
1507862716.0,286047000.2,N
1507862735.8,286047000.3,N
1507862755.6,286047001.1,N
1507862775.5,286047001.0,N
1507862795.3,286047001.2,N
1507862815.2,286046998.1,N
1507862835.9,286047001.2,N
1507862855.7,286046998.2,N
1507862875.6,286046998.3,N
1507862895.4,286046998.6,N
1507862915.2,286046998.5,N
1507862935.1,286047000.6,N
1507862936.0,286047000.6,N
1507862955.8,286047002.3,N
1507862975.7,286047002.6,N
1507862995.5,286047002.6,N
1507863015.3,286047002.6,N
1507863035.2,286047002.6,N
1507863055.0,286046999.8,N
1507863055.9,286046999.8,N
1507863075.7,286047000.1,N
1507863095.6,286047001.6,N
1507863115.4,286047001.9,N
1507863135.3,286047003.1,N
1507863155.1,286047003.6,N
1507863156.0,286047003.6,N
1507863175.8,286047001.7,N
1507863195.7,286047002.0,N
1507863215.5,286047002.2,N
1507863235.3,286047002.3,N
1507863255.2,286047001.5,N
1507863275.0,286047001.7,N
1507863275.9,286047001.7,N
1507863295.8,286047002.1,N
1507863315.6,286047002.3,N
1507863335.4,286047002.6,N
1507863355.3,286047001.3,N
1507863375.1,286047003.9,N
1507863395.9,286047004.4,Y
1507863415.7,286047000.6,P
1507863435.5,286047000.3,N
1507863455.4,286047000.1,N
1507863475.2,286047000.3,N
1507863495.0,286047000.9,N
1507863495.9,286047000.9,N
1507863515.8,286046999.9,N
1507863535.6,286046998.1,Y
1507863555.5,286047000.1,P
1507863575.3,286046998.1,P
1507863595.1,286046999.2,N
